[[{"header":{"parameterUnit":"m.s-1","parameterCategory":1,"la1":30.2991,"la2":30.254,"lo1":-89.0895,"lo2":-89.0444,"dy":0.0017,"dx":0.0017,"nx":28,"ny":28,"refTime":"2025-01-29T03:00:00:Z","depth":0,"parameterNumber":2,"parameterNumberName":"U-component_of_WINDS"},"data":[0,0,0,0,0,0,0,0,0,0,0,0,0,0,0,0,0,0,0,0,0,0,0,0,0,0,0,0,0,0,0,0,0,0,0,0,0,0,0,0,0,0,0,0,0,0,0,0,0,0,0,0,0,0,0,0,0,0,-1.6383,-1.6383,0,-1.6331,-1.633,-1.633,-1.6243,-1.6241,-1.624,-1.6238,-1.6185,-1.6185,-1.6186,0,0,0,0,0,0,0,0,0,0,0,0,0,-1.6411,-1.6411,-1.6383,-1.6383,-1.6382,-1.6331,-1.633,-1.633,-1.6243,-1.6241,-1.6239,-1.6238,-1.6185,-1.6185,-1.6186,0,0,0,0,0,0,0,0,0,0,0,0,0,-1.6383,-1.6411,-1.6384,-1.6333,-1.6328,-1.6331,-1.633,-1.6329,-1.6244,-1.6241,-1.6239,-1.6237,-1.6185,-1.6185,-1.6186,-1.6234,0,0,-1.6186,-1.6186,0,0,0,0,0,0,0,0,-1.6384,-1.6382,-1.6341,-1.6336,-1.6331,-1.6291,-1.632,-1.6298,-1.6244,-1.6276,-1.6238,-1.6236,-1.6223,-1.6219,-1.6215,-1.6232,-1.623,-1.6186,-1.6186,-1.6186,-1.6186,0,0,0,0,0,0,0,-1.6386,-1.6384,-1.6363,-1.6341,-1.6334,-1.6313,-1.6307,-1.6316,-1.6263,-1.6273,-1.6266,-1.6261,-1.6219,-1.6215,-1.6213,-1.6229,-1.6186,-1.6186,-1.6186,-1.6186,-1.6284,-1.6287,0,0,0,0,0,0,-1.6396,-1.6386,-1.6364,-1.6361,-1.6352,-1.6315,-1.6307,-1.6306,-1.6263,-1.6254,-1.6263,-1.6257,-1.6216,-1.6213,-1.6211,-1.6265,-1.6186,-1.6186,-1.6186,-1.6282,-1.6285,-1.6288,0,0,0,0,0,0,-1.6397,-1.6395,-1.6366,-1.6372,-1.6366,-1.6317,-1.6316,-1.6306,-1.6302,-1.6256,-1.6246,-1.6269,-1.6214,-1.6211,-1.6229,-1.6262,-1.6186,-1.6186,-1.6279,-1.6283,-1.6286,-1.6375,0,0,0,0,0,0,-1.6398,-1.6395,-1.6413,-1.6373,-1.6367,-1.6386,-1.6318,-1.6307,-1.6302,-1.6294,-1.6258,-1.625,-1.6212,-1.623,-1.6229,-1.6261,-1.6186,-1.6276,-1.628,-1.6285,-1.6369,-1.6381,-1.6392,0,0,0,0,0,-1.6399,-1.644,-1.6414,-1.6412,-1.6387,-1.6388,-1.6384,-1.6339,-1.6305,-1.6323,-1.6293,-1.6251,-1.6259,-1.6232,-1.6231,-1.6264,-1.6273,-1.6279,-1.6285,-1.6364,-1.6379,-1.6392,0,0,0,0,0,0,-1.6485,-1.6434,-1.6404,-1.6434,-1.6416,-1.6373,-1.6393,-1.6357,-1.6348,-1.6341,-1.6286,-1.6279,-1.6305,-1.6286,-1.6257,-1.6309,-1.626,-1.6265,-1.632,-1.6334,-1.6346,-1.6349,-1.6187,0,0,0,0,0,-1.6508,-1.6512,-1.6467,-1.6497,-1.6489,-1.6443,-1.6442,-1.6409,-1.6388,-1.638,-1.6352,-1.6334,-1.6332,-1.6332,-1.6328,-1.6366,-1.6357,-1.6388,-1.64,-1.6409,-1.6415,-1.6435,-1.6448,-1.6306,-1.6306,-1.6306,0,0,-1.6554,-1.6526,-1.6532,-1.6513,-1.6495,-1.6502,-1.6437,-1.6446,-1.645,-1.6381,-1.6397,-1.6377,-1.6353,-1.6382,-1.6393,-1.6367,-1.6452,-1.6417,-1.6425,-1.6425,-1.6442,-1.6455,-1.6467,-1.631,-1.6309,-1.6309,0,0,-1.6641,-1.6621,-1.6644,-1.6627,-1.6601,-1.6571,-1.6577,-1.654,-1.6523,-1.6538,-1.6487,-1.6492,-1.649,-1.6475,-1.6468,-1.6552,-1.6513,-1.6552,-1.6612,-1.6632,-1.6643,-1.6653,-1.6683,-1.6695,-1.6558,-1.6558,-1.6558,0,-1.6702,-1.6708,-1.666,-1.6673,-1.6666,-1.6605,-1.6628,-1.6615,-1.6589,-1.6587,-1.6558,-1.6555,-1.6535,-1.656,-1.658,-1.6576,-1.6582,-1.6555,-1.6646,-1.6655,-1.6663,-1.6691,-1.6703,-1.6563,-1.6562,-1.6562,-1.6561,0,-1.6785,-1.679,-1.6812,-1.6789,-1.6785,-1.6803,-1.6758,-1.6761,-1.6729,-1.6702,-1.6719,-1.6692,-1.6682,-1.6686,-1.6655,-1.6707,-1.6692,-1.6655,-1.6604,-1.6682,-1.6708,-1.6718,-1.657,-1.6568,-1.6567,-1.6566,0,0,-1.6923,-1.6874,-1.6883,-1.6872,-1.684,-1.6844,-1.686,-1.685,-1.6853,-1.6838,-1.685,-1.6851,-1.6817,-1.6809,-1.6776,-1.6793,-1.6862,-1.6754,-1.6753,-1.6776,-1.6919,-1.6946,-1.696,-1.6837,-1.6838,-1.684,-1.6921,0,-1.7004,-1.7027,-1.6985,-1.7019,-1.7024,-1.6966,-1.698,-1.6963,-1.6938,-1.6939,-1.6912,-1.6914,-1.6869,-1.6864,-1.6879,-1.6851,-1.689,-1.6844,-1.6848,-1.6848,-1.6855,-1.6973,-1.7001,-1.7079,-1.6931,-1.6932,-1.6933,0,-1.71,-1.709,-1.7124,-1.7091,-1.7092,-1.7105,-1.7093,-1.7095,-1.7074,-1.7055,-1.7047,-1.7008,-1.7022,-1.6974,-1.6993,-1.6963,-1.6962,-1.6949,-1.695,-1.6948,-1.6895,-1.6974,-1.7103,-1.7115,-1.6949,-1.6947,-1.6946,0,-1.7198,-1.7193,-1.7213,-1.7206,-1.7167,-1.7178,-1.7163,-1.714,-1.7137,-1.7127,-1.7125,-1.7117,-1.7113,-1.7108,-1.7069,-1.7037,-1.7093,-1.7041,-1.7078,-1.7079,-1.7091,-1.7091,-1.7222,-1.7092,-1.7092,-1.7091,-1.7091,0,-1.7292,-1.7315,-1.7257,-1.7269,-1.7294,-1.7246,-1.7272,-1.7251,-1.7231,-1.7239,-1.719,-1.7198,-1.7146,-1.7149,-1.7118,-1.7139,-1.7138,-1.7123,-1.7115,-1.7127,-1.7129,-1.7125,-1.7119,-1.7094,-1.7094,-1.7093,-1.7093,0,-1.7405,-1.7367,-1.7385,-1.7347,-1.7339,-1.7359,-1.7327,-1.7337,-1.731,-1.7321,-1.7321,-1.7279,-1.728,-1.724,-1.7234,-1.7213,-1.7247,-1.7229,-1.7254,-1.7249,-1.7288,-1.7285,-1.742,-1.7436,-1.7297,-1.7298,-1.7299,0,-1.7467,-1.7483,-1.7448,-1.745,-1.7437,-1.744,-1.7437,-1.7392,-1.7391,-1.7369,-1.7383,-1.738,-1.7375,-1.738,-1.7349,-1.7344,-1.7326,-1.7374,-1.7324,-1.7337,-1.7326,-1.7326,-1.7327,-1.7384,-1.7385,-1.7387,-1.7388,0,-1.7581,-1.7562,-1.7559,-1.7551,-1.7549,-1.7541,-1.7529,-1.7533,-1.7483,-1.7485,-1.7486,-1.7482,-1.7476,-1.7474,-1.7464,-1.7448,-1.741,-1.7404,-1.7412,-1.7425,-1.7439,-1.7432,-1.7282,-1.7401,-1.74,-1.7399,-1.7398,-1.7397,-1.767,-1.7683,-1.766,-1.766,-1.7646,-1.7637,-1.7645,-1.7619,-1.7619,-1.761,-1.7583,-1.7589,-1.7569,-1.7551,-1.7539,-1.7544,-1.752,-1.7532,-1.7535,-1.7538,-1.7546,-1.7439,-1.7541,-1.7541,-1.7541,-1.754,-1.754,0,-1.7782,-1.7765,-1.7765,-1.775,-1.7751,-1.7715,-1.77,-1.7703,-1.7708,-1.7693,-1.769,-1.7691,-1.769,-1.7659,-1.7654,-1.7664,-1.7646,-1.7664,-1.7662,-1.766,-1.7567,-1.756,-1.7678,-1.7678,-1.7678,-1.7678,-1.7678,-1.7678,-1.7841,-1.786,-1.7838,-1.7851,-1.7834,-1.7839,-1.7834,-1.7825,-1.7812,-1.7816,-1.7815,-1.7795,-1.7774,-1.7767,-1.7765,-1.7756,-1.7756,-1.778,-1.7766,-1.7679,-1.7666,-1.7653,-1.7647,-1.7781,-1.7781,-1.7858,-1.7858,-1.7859]},{"header":{"parameterUnit":"m.s-1","parameterCategory":1,"la1":30.2991,"la2":30.254,"lo1":-89.0895,"lo2":-89.0444,"dy":0.0017,"dx":0.0017,"nx":28,"ny":28,"refTime":"2025-01-29T03:00:00:Z","depth":0,"parameterNumber":3,"parameterNumberName":"V-component_of_WINDS"},"data":[0,0,0,0,0,0,0,0,0,0,0,0,0,0,0,0,0,0,0,0,0,0,0,0,0,0,0,0,0,0,0,0,0,0,0,0,0,0,0,0,0,0,0,0,0,0,0,0,0,0,0,0,0,0,0,0,0,0,0.1753,0.1754,0,0.1799,0.1799,0.18,0.1863,0.1864,0.1865,0.1866,0.1911,0.1912,0.1912,0,0,0,0,0,0,0,0,0,0,0,0,0,0.1719,0.172,0.1753,0.1754,0.1754,0.1799,0.1799,0.18,0.1863,0.1864,0.1866,0.1867,0.1911,0.1912,0.1912,0,0,0,0,0,0,0,0,0,0,0,0,0,0.1746,0.172,0.1753,0.1791,0.1795,0.1799,0.1799,0.18,0.1863,0.1864,0.1866,0.1867,0.1911,0.1911,0.1912,0.1881,0,0,0.1913,0.1913,0,0,0,0,0,0,0,0,0.1745,0.1748,0.1785,0.1788,0.1793,0.1827,0.1804,0.1827,0.1862,0.1837,0.1866,0.1868,0.1882,0.1885,0.189,0.1884,0.1885,0.1913,0.1913,0.1913,0.1913,0,0,0,0,0,0,0,0.1743,0.1746,0.1771,0.1785,0.179,0.1806,0.1811,0.1809,0.185,0.1839,0.1844,0.1849,0.1884,0.1889,0.1891,0.1886,0.1913,0.1913,0.1913,0.1913,0.1858,0.1857,0,0,0,0,0,0,0.1735,0.1744,0.177,0.1773,0.1772,0.1805,0.1811,0.1814,0.185,0.1857,0.1847,0.1851,0.1888,0.1891,0.1893,0.1861,0.1913,0.1913,0.1913,0.186,0.1858,0.1856,0,0,0,0,0,0,0.1734,0.1737,0.1768,0.176,0.1765,0.1804,0.1807,0.1814,0.1819,0.1856,0.1863,0.1845,0.1889,0.1893,0.1884,0.1863,0.1913,0.1914,0.1862,0.1859,0.1857,0.1795,0,0,0,0,0,0,0.1733,0.1736,0.1725,0.1759,0.1765,0.1758,0.1806,0.1814,0.182,0.1826,0.1856,0.1862,0.1891,0.1883,0.1884,0.1864,0.1914,0.1864,0.1861,0.1858,0.1799,0.179,0.1783,0,0,0,0,0,0.1732,0.1706,0.1725,0.1727,0.1752,0.1757,0.1761,0.1795,0.1818,0.1807,0.1831,0.1861,0.1865,0.1882,0.1884,0.1863,0.1865,0.1862,0.1858,0.1802,0.1792,0.1783,0,0,0,0,0,0,0.1668,0.1711,0.1732,0.1716,0.1732,0.1768,0.1755,0.1782,0.1792,0.1797,0.1839,0.1845,0.1831,0.1847,0.1865,0.1836,0.187,0.1866,0.1827,0.1817,0.181,0.1806,0.1914,0,0,0,0,0,0.1652,0.1653,0.169,0.1672,0.1679,0.1716,0.1719,0.1744,0.1763,0.177,0.1793,0.1809,0.1814,0.1817,0.1823,0.1801,0.1809,0.1788,0.178,0.1774,0.177,0.176,0.1752,0.1844,0.1844,0.1844,0,0,0.1619,0.1642,0.164,0.166,0.1676,0.1675,0.1721,0.1719,0.1719,0.1769,0.1763,0.178,0.1801,0.1786,0.1781,0.1799,0.1746,0.1769,0.1763,0.1764,0.1756,0.1747,0.1739,0.1842,0.1842,0.1842,0,0,0.1559,0.1576,0.1564,0.1579,0.1603,0.1627,0.1624,0.1655,0.1669,0.1664,0.1701,0.1702,0.171,0.1724,0.1731,0.1677,0.1706,0.1678,0.1637,0.1627,0.162,0.1614,0.1595,0.1587,0.1674,0.1674,0.1674,0,0.1515,0.1516,0.1554,0.155,0.1557,0.1603,0.1591,0.1604,0.1627,0.1632,0.1651,0.1663,0.168,0.1669,0.1656,0.1661,0.1658,0.1675,0.1618,0.1612,0.1607,0.1589,0.1582,0.1671,0.1671,0.1672,0.1672,0,0.1461,0.1462,0.1449,0.1472,0.1478,0.1469,0.1505,0.1507,0.1531,0.1554,0.1548,0.157,0.1583,0.1582,0.1605,0.1574,0.1585,0.161,0.1645,0.1594,0.1578,0.1572,0.1666,0.1667,0.1668,0.1669,0,0,0.1362,0.1406,0.1401,0.1412,0.1442,0.1443,0.1437,0.1449,0.145,0.1465,0.1461,0.1467,0.1491,0.15,0.1526,0.1517,0.1473,0.1544,0.1545,0.153,0.1441,0.1421,0.1413,0.1492,0.1491,0.149,0.1439,0,0.1308,0.13,0.1334,0.1317,0.1318,0.1363,0.1357,0.1374,0.1395,0.1399,0.1422,0.1425,0.1457,0.1463,0.1456,0.148,0.1456,0.1484,0.1488,0.1488,0.1482,0.1405,0.1384,0.1335,0.1433,0.1432,0.1431,0,0.1244,0.1256,0.124,0.1271,0.1273,0.1267,0.1282,0.1285,0.1306,0.1322,0.1332,0.1362,0.1358,0.1391,0.1386,0.1404,0.1408,0.142,0.1419,0.1421,0.1457,0.1405,0.132,0.1313,0.1422,0.1423,0.1423,0,0.1173,0.1186,0.1178,0.1187,0.1223,0.1218,0.1232,0.1255,0.1261,0.1273,0.1278,0.1289,0.1296,0.1304,0.1336,0.1357,0.1327,0.1363,0.134,0.1339,0.1332,0.1332,0.1247,0.1334,0.1334,0.1334,0.1334,0,0.111,0.1098,0.1147,0.1142,0.1131,0.117,0.1157,0.1176,0.1196,0.1195,0.1234,0.1232,0.1274,0.1278,0.1303,0.1295,0.1297,0.131,0.1317,0.1307,0.1305,0.131,0.1314,0.1332,0.1333,0.1333,0.1333,0,0.1029,0.1062,0.1056,0.1091,0.11,0.109,0.1119,0.1116,0.114,0.1138,0.114,0.1177,0.1183,0.1215,0.1229,0.1246,0.1229,0.1242,0.1222,0.1227,0.1202,0.1204,0.1118,0.1109,0.12,0.1199,0.1199,0,0.0987,0.0979,0.1013,0.1016,0.1029,0.1033,0.1039,0.1077,0.1082,0.1105,0.1099,0.1109,0.1118,0.1125,0.1153,0.1163,0.1177,0.1146,0.1179,0.1169,0.1177,0.1178,0.1177,0.1139,0.1138,0.1137,0.1136,0,0.0908,0.0925,0.0932,0.0946,0.0953,0.0965,0.0979,0.0979,0.1021,0.1025,0.1032,0.1039,0.1053,0.1062,0.1077,0.1092,0.1121,0.1126,0.1121,0.1111,0.11,0.1106,0.1203,0.1128,0.1128,0.1129,0.113,0.113,0.0846,0.0841,0.0865,0.0872,0.0887,0.09,0.0899,0.0923,0.0929,0.0944,0.0966,0.097,0.0991,0.1015,0.1027,0.1031,0.1048,0.1041,0.1039,0.1037,0.1032,0.1099,0.1034,0.1034,0.1034,0.1035,0.1035,0,0.0769,0.0787,0.0793,0.0813,0.0819,0.0846,0.0864,0.0867,0.087,0.0888,0.0897,0.0905,0.0913,0.0941,0.0953,0.095,0.0964,0.0952,0.0953,0.0956,0.1016,0.1019,0.0941,0.0941,0.0941,0.0941,0.0941,0.0941,0.073,0.0724,0.0743,0.0745,0.0763,0.0767,0.0775,0.0787,0.0802,0.0809,0.0817,0.0835,0.0857,0.0871,0.088,0.0888,0.0891,0.0875,0.0887,0.0943,0.0952,0.096,0.0963,0.0875,0.0875,0.0827,0.0826,0.0826]}]]